[[{"header":{"parameterUnit":"m.s-1","parameterCategory":1,"la1":30.2992,"la2":30.254,"lo1":-89.0895,"lo2":-89.0443,"dy":0.0025,"dx":0.0025,"nx":19,"ny":19,"refTime":"2026-04-11T09:00:00:Z","depth":0,"parameterNumber":2,"parameterNumberName":"U-component_of_WINDS"},"data":[0,0,0,-3.6876,-3.6878,-3.6974,-3.6974,-3.7108,-3.7109,0,0,0,0,0,0,0,0,0,0,0,-3.6853,-3.6855,-3.6876,-3.6878,-3.6974,-3.6974,-3.7108,-3.7109,0,0,0,0,0,0,0,0,0,0,0,-3.6853,-3.6854,-3.6856,-3.6879,-3.6974,-3.6974,-3.7107,-3.7031,0,0,0,0,0,0,0,0,0,0,-3.6936,-3.6921,-3.6854,-3.6856,-3.6879,-3.6974,-3.6974,-3.7027,-3.7036,-3.7069,0,-3.71,0,-3.7107,-3.7119,-3.7119,0,0,0,-3.6873,-3.6914,-3.6935,-3.6856,-3.688,-3.6974,-3.6929,-3.7032,-3.7042,-3.7081,-3.7102,-3.7106,-3.7109,-3.712,-3.712,-3.7329,-3.733,0,0,-3.6868,-3.6874,-3.6928,-3.6941,-3.6927,-3.6926,-3.6932,-3.7038,-3.7061,-3.7102,-3.7109,-3.7111,-3.7121,-3.7122,-3.7328,-3.7329,0,0,0,-3.6856,-3.687,-3.6888,-3.6936,-3.6953,-3.6929,-3.6936,-3.7056,-3.7062,-3.7111,-3.7113,-3.7121,-3.7123,-3.7326,-3.7328,-3.7392,0,0,0,-3.6853,-3.6863,-3.6886,-3.689,-3.6951,-3.7006,-3.6953,-3.7054,-3.7066,-3.7112,-3.7122,-3.7125,-3.7325,-3.7327,-3.7387,-3.742,0,0,0,-3.6845,-3.6862,-3.6878,-3.6891,-3.6932,-3.7004,-3.7015,-3.7057,-3.7068,-3.7119,-3.7125,-3.7324,-3.7327,-3.7383,-3.7413,-3.7476,0,0,0,-3.6838,-3.6933,-3.688,-3.6987,-3.6931,-3.7044,-3.7014,-3.7097,-3.7149,-3.7122,-3.7325,-3.7328,-3.7382,-3.7409,-3.7472,-3.7528,-3.7553,0,0,-3.6961,-3.6948,-3.7011,-3.6966,-3.7089,-3.7028,-3.7161,-3.7203,-3.7203,-3.7287,-3.7292,-3.7389,-3.7413,-3.7475,-3.7693,-3.7713,0,0,0,-3.7052,-3.7097,-3.7128,-3.7179,-3.7214,-3.7247,-3.7269,-3.7285,-3.7356,-3.7247,-3.7429,-3.7444,-3.748,-3.7506,-3.7523,-3.7554,-3.7341,-3.7341,-3.734,-3.7231,-3.7227,-3.7331,-3.7339,-3.7389,-3.7412,-3.7452,-3.7478,-3.7458,-3.7502,-3.7525,-3.7658,-3.769,-3.7702,-3.7734,-3.7557,-3.7557,-3.7558,-3.7558,-3.7409,-3.7471,-3.7446,-3.7537,-3.7534,-3.761,-3.7638,-3.7622,-3.7693,-3.7639,-3.7671,-3.761,-3.7724,-3.7751,-3.7563,-3.7562,-3.7561,-3.7561,-3.756,-3.7523,-3.7552,-3.7572,-3.7646,-3.7705,-3.7711,-3.7781,-3.7776,-3.7771,-3.7802,-3.7827,-3.7826,-3.7822,-3.7815,-3.7816,-3.7816,-3.7817,-3.7817,-3.7817,-3.7633,-3.7653,-3.7713,-3.7761,-3.7794,-3.7837,-3.7865,-3.7897,-3.7931,-3.7921,-3.7922,-3.7898,-3.7737,-3.7695,-3.7824,-3.7823,-3.7822,-3.7821,-3.7821,-3.7809,-3.7769,-3.7861,-3.7895,-3.7952,-3.8011,-3.8005,-3.8073,-3.8099,-3.8134,-3.8106,-3.7988,-3.7974,-3.796,-3.7925,-3.8106,-3.8106,-3.8106,-3.8107,-3.7904,-3.7898,-3.7991,-3.8045,-3.8098,-3.8103,-3.8208,-3.8232,-3.825,-3.8267,-3.8241,-3.8196,-3.8182,-3.8176,-3.8158,-3.8125,-3.8353,-3.8353,-3.8353,-3.8012,-3.8011,-3.81,-3.8118,-3.8165,-3.8204,-3.8304,-3.8367,-3.838,-3.8363,-3.828,-3.8269,-3.8196,-3.8173,-3.8149,-3.8121,-3.8061,0,0]},{"header":{"parameterUnit":"m.s-1","parameterCategory":1,"la1":30.2992,"la2":30.254,"lo1":-89.0895,"lo2":-89.0443,"dy":0.0025,"dx":0.0025,"nx":19,"ny":19,"refTime":"2026-04-11T09:00:00:Z","depth":0,"parameterNumber":3,"parameterNumberName":"V-component_of_WINDS"},"data":[0,0,0,2.3627,2.3627,2.3613,2.3613,2.3593,2.3592,0,0,0,0,0,0,0,0,0,0,0,2.3631,2.3631,2.3627,2.3627,2.3613,2.3613,2.3593,2.3592,0,0,0,0,0,0,0,0,0,0,0,2.3631,2.3631,2.3631,2.3627,2.3613,2.3613,2.3593,2.3604,0,0,0,0,0,0,0,0,0,0,2.3618,2.3622,2.3631,2.3631,2.3627,2.3613,2.3612,2.3604,2.3603,2.3599,0,2.3596,0,2.3594,2.3591,2.3591,0,0,0,2.3626,2.3623,2.3619,2.3631,2.3626,2.3613,2.3619,2.3604,2.3602,2.3597,2.3596,2.3595,2.3594,2.3591,2.3591,2.3571,2.3571,0,0,2.3627,2.3628,2.362,2.3618,2.3622,2.3619,2.3618,2.3603,2.3601,2.3596,2.3594,2.3593,2.3591,2.3591,2.3571,2.3571,0,0,0,2.363,2.3629,2.3626,2.3619,2.3617,2.3619,2.3618,2.3601,2.36,2.3594,2.3593,2.3591,2.359,2.3571,2.3571,2.357,0,0,0,2.363,2.363,2.3626,2.3627,2.3617,2.3609,2.3617,2.3601,2.36,2.3593,2.3591,2.359,2.3571,2.3571,2.357,2.3569,0,0,0,2.3632,2.3631,2.3629,2.3627,2.3621,2.3609,2.3607,2.3601,2.3599,2.3591,2.359,2.3571,2.3571,2.357,2.3569,2.3565,0,0,0,2.3634,2.3627,2.3629,2.362,2.3621,2.3609,2.3608,2.3598,2.3591,2.3591,2.3571,2.3571,2.357,2.3569,2.3565,2.3561,2.356,0,0,2.3626,2.3626,2.362,2.3622,2.361,2.3611,2.3599,2.359,2.3587,2.3576,2.3576,2.357,2.3569,2.3565,2.3552,2.3551,0,0,0,2.3618,2.3614,2.3611,2.3605,2.36,2.3595,2.3588,2.3585,2.3576,2.3583,2.3567,2.3566,2.3564,2.3562,2.3561,2.3559,2.357,2.357,2.357,2.3607,2.3605,2.3597,2.3593,2.3588,2.3582,2.3577,2.3572,2.357,2.3567,2.3563,2.3556,2.3554,2.3553,2.3551,2.3561,2.3561,2.3561,2.3561,2.3594,2.3588,2.3589,2.358,2.3578,2.357,2.3565,2.3564,2.3556,2.3558,2.3556,2.3558,2.3552,2.355,2.3561,2.3561,2.3561,2.3561,2.3561,2.3586,2.3584,2.3581,2.3574,2.3568,2.3564,2.3558,2.3555,2.3553,2.3551,2.3547,2.3547,2.3547,2.3549,2.3549,2.3549,2.3549,2.3549,2.3549,2.358,2.3577,2.3572,2.3567,2.3563,2.3558,2.3553,2.3549,2.3545,2.3544,2.3544,2.3543,2.3552,2.3555,2.3549,2.3549,2.3549,2.3549,2.3549,2.3567,2.357,2.3562,2.3559,2.3553,2.3547,2.3545,2.3538,2.3535,2.3531,2.3531,2.3539,2.3538,2.3539,2.3541,2.3532,2.3532,2.3532,2.3532,2.356,2.3561,2.3553,2.3548,2.3543,2.3541,2.3532,2.3528,2.3524,2.3522,2.3523,2.3525,2.3526,2.3525,2.3526,2.3528,2.3516,2.3516,2.3516,2.3553,2.3552,2.3545,2.3543,2.3538,2.3534,2.3526,2.3519,2.3515,2.3515,2.352,2.352,2.3525,2.3526,2.3525,2.3527,2.353,0,0]}]]